Location: Basse Occidentale du Courleau
(48.3833°N, 4.8333°W)
Time: 19:07:33
(UTC+00:00)

Spot 2 Rocket - Pass Details

Date: 05 July 2020
Orbit: 757 x 772 km, 98.6° (Epoch: 06 August)

Event Time Altitude Azimuth Distance (km) Brightness Sun altitude
Exits shadow 21:16:43 - 164° (SSE) 2,649 5.7 -7.5°
Reaches altitude 10° 21:17:35 10° 164° (SSE) 2,301 5.4 -7.6°
Maximum altitude 21:22:41 89° 254° (WSW) 777 3.6 -8.2°
Drops below altitude 10° 21:27:50 10° 345° (NNW) 2,326 7.2 -8.7°
Sets 21:30:09 0° 346° (NNW) 3,259 8.1 -9.0°
